This is the latest recevied weather packets stored in our database for station/object K5UTC. If no packets are shown the sender has not sent any weather packets the latest 10 day(s).
| Time | Temp. | Humidity | Pressure | Rain* | Wind** | Luminosity | Snow |
|---|---|---|---|---|---|---|---|
| 1778195666 | 20° C | 53% | 1013.2 hPa | 0 mm | - | 58 W/m² | - |
| 1778195363 | 20° C | 51% | 1013.3 hPa | 0 mm | - | 72 W/m² | - |
| 1778195061 | 20° C | 52% | 1013.2 hPa | 0 mm | - | 83 W/m² | - |
| 1778194760 | 20.56° C | 52% | 1013.5 hPa | 0 mm | - | 80 W/m² | - |
| 1778194457 | 20.56° C | 55% | 1013.4 hPa | 0 mm | - | 81 W/m² | - |
| 1778194153 | 20.56° C | 52% | 1013.4 hPa | 0 mm | - | 90 W/m² | - |
| 1778193849 | 20.56° C | 52% | 1013.2 hPa | 0 mm | - | 93 W/m² | - |
| 1778193546 | 20.56° C | 51% | 1013.2 hPa | 0 mm | - | 98 W/m² | - |
| 1778193242 | 21.67° C | 50% | 1012.9 hPa | 0 mm | - | 98 W/m² | - |
| 1778192939 | 22.22° C | 51% | 1013.2 hPa | 0 mm | - | 333 W/m² | - |
| 1778192629 | 22.22° C | 46% | 1012.9 hPa | 0 mm | - | 290 W/m² | - |
| 1778192326 | 22.22° C | 50% | 1012.9 hPa | 0 mm | - | 366 W/m² | - |
| 1778192023 | 22.22° C | 47% | 1013.2 hPa | 0 mm | - | 353 W/m² | - |
| 1778191719 | 22.22° C | 49% | 1013 hPa | 0 mm | - | 358 W/m² | - |
| 1778191418 | 21.67° C | 50% | 1013.3 hPa | 0 mm | - | 364 W/m² | - |
| 1778191114 | 22.22° C | 48% | 1012.9 hPa | 0 mm | - | 374 W/m² | - |
| 1778190811 | 22.78° C | 48% | 1012.8 hPa | 0 mm | - | 395 W/m² | - |
| 1778190508 | 23.33° C | 47% | 1012.9 hPa | 0 mm | - | 369 W/m² | - |
| 1778190206 | 22.78° C | 51% | 1012.9 hPa | 0 mm | - | 439 W/m² | - |
| 1778189905 | 22.78° C | 51% | 1013.2 hPa | 0 mm | - | 499 W/m² | - |
| 1778189603 | 21.67° C | 54% | 1012.9 hPa | 0 mm | - | 150 W/m² | - |
| 1778189300 | 21.11° C | 54% | 1013 hPa | 0 mm | - | 534 W/m² | - |
| 1778188996 | 21.67° C | 52% | 1013 hPa | 0 mm | - | 455 W/m² | - |
| 1778188692 | 22.78° C | 52% | 1012.9 hPa | 0 mm | - | 553 W/m² | - |
| 1778188389 | 22.78° C | 51% | 1012.8 hPa | 0 mm | - | 562 W/m² | - |
* Rain latest hour (hover to see other rain measurements)
** Current wind speed in m/s (hover to see current wind gust speed)